Change the Weather History Date:

Friday, April 4, 2014

  Actual Average Record
Temperature  
Mean Temperature 30 °F -  
Max Temperature 35 °F 40 °F 53 °F (2005)
Min Temperature 24 °F 25 °F 7 °F (1954)
Degree Days  
Heating Degree Days 36    
Moisture  
Dew Point 26 °F    
Average Humidity 81    
Maximum Humidity 93    
Minimum Humidity 65    
Precipitation  
Precipitation 0.09 in - - ()
Sea Level Pressure  
Sea Level Pressure 29.62 in    
Wind  
Wind Speed 11 mph (NNE)    
Max Wind Speed 21 mph    
Max Gust Speed 31 mph    
Visibility 5 miles    
Events      
Averages and records for this station are not official NWS values.
T = Trace of Precipitation, MM = Missing Value Source: NWS Daily Summary

Daily Weather History Graph

Daily Weather History Graph

Search for Another Location

Airport or City:

Trip Planner

Search our weather history database for the weather conditions in past years. The results will help you decide how hot, cold, wet, or windy it might be!

Date:

Astronomy

Apr. 04, 2014 Rise Set
Actual Time 7:22 AM EDT 8:20 PM EDT
Civil Twilight 6:52 AM EDT 8:50 PM EDT
Nautical Twilight 6:16 AM EDT 9:27 PM EDT
Astronomical Twilight 5:38 AM EDT 10:05 PM EDT
Moon 10:28 AM EDT (4/4) 12:49 AM EDT (4/4)
Length of Visible Light 13h 58m
Length of Day
12h 57m
Waxing Crescent, 25% of the Moon is Illuminated
Apr 4
Waxing Crescent
Apr 7
First Quarter
Apr 15
Full
Apr 22
Last Quarter
Apr 29
New

Hourly Weather History & Observations

Time (EDT) Temp. Windchill Dew Point Humidity Pressure Visibility Wind Dir Wind Speed Gust Speed Precip Events Conditions
12:15 AM 33.8 °F 26.4 °F 23.0 °F 65% 29.89 in 10.0 mi ENE 9.2 mph - N/A   Overcast
12:35 AM 33.8 °F 25.8 °F 23.0 °F 65% 29.88 in 10.0 mi ENE 10.4 mph - N/A   Overcast
12:55 AM 33.8 °F 25.8 °F 24.8 °F 70% 29.85 in 10.0 mi NE 10.4 mph - N/A   Overcast
1:15 AM 33.8 °F 27.7 °F 24.8 °F 70% 29.85 in 10.0 mi ENE 6.9 mph - N/A   Overcast
1:35 AM 33.8 °F 27.7 °F 24.8 °F 70% 29.85 in 10.0 mi ENE 6.9 mph - N/A   Overcast
1:55 AM 33.8 °F 25.8 °F 24.8 °F 70% 29.82 in 10.0 mi ENE 10.4 mph - N/A   Overcast
2:15 AM 33.8 °F 25.8 °F 24.8 °F 70% 29.78 in 10.0 mi ENE 10.4 mph - N/A   Overcast
2:35 AM 33.8 °F 25.8 °F 24.8 °F 70% 29.77 in 10.0 mi ENE 10.4 mph - N/A   Overcast
2:55 AM 33.8 °F 24.8 °F 24.8 °F 70% 29.74 in 10.0 mi ENE 12.7 mph - N/A   Overcast
3:15 AM 33.8 °F 24.3 °F 24.8 °F 70% 29.74 in 10.0 mi ENE 13.8 mph 18.4 mph N/A   Overcast
3:35 AM 33.8 °F 24.8 °F 24.8 °F 70% 29.72 in 10.0 mi ENE 12.7 mph 20.7 mph N/A   Overcast
3:55 AM 35.6 °F 28.6 °F 24.8 °F 65% 29.74 in 10.0 mi ENE 9.2 mph - N/A   Overcast
4:15 AM 35.6 °F 27.5 °F 24.8 °F 65% 29.73 in 10.0 mi ENE 11.5 mph - N/A   Overcast
4:35 AM 35.6 °F 27.5 °F 24.8 °F 65% 29.73 in 10.0 mi ENE 11.5 mph 17.3 mph N/A   Overcast
4:55 AM 33.8 °F 23.5 °F 24.8 °F 70% 29.70 in 9.0 mi East 16.1 mph 21.9 mph N/A   Overcast
5:15 AM 33.8 °F 23.2 °F 26.6 °F 75% 29.67 in 7.0 mi East 17.3 mph 23.0 mph 0.01 in   Overcast
5:35 AM 33.8 °F 23.2 °F 26.6 °F 75% 29.66 in 8.0 mi ENE 17.3 mph 23.0 mph 0.01 in   Overcast
5:55 AM 33.8 °F 23.5 °F 28.4 °F 81% 29.65 in 7.0 mi East 16.1 mph - 0.02 in   Overcast
6:15 AM 33.8 °F 23.5 °F 28.4 °F 81% 29.63 in 5.0 mi ENE 16.1 mph 24.2 mph N/A   Overcast
6:35 AM 32.0 °F 20.8 °F 28.4 °F 87% 29.57 in 6.0 mi ENE 17.3 mph 27.6 mph N/A   Overcast
6:55 AM 32.0 °F 21.6 °F 28.4 °F 87% 29.58 in 10.0 mi East 15.0 mph 24.2 mph N/A   Overcast
7:15 AM 32.0 °F 23.0 °F 28.4 °F 87% 29.58 in 10.0 mi East 11.5 mph - N/A   Overcast
7:35 AM 32.0 °F 22.1 °F 28.4 °F 87% 29.59 in 10.0 mi ENE 13.8 mph 20.7 mph N/A   Overcast
7:55 AM 32.0 °F 23.6 °F 28.4 °F 87% 29.60 in 6.0 mi ENE 10.4 mph - N/A   Overcast
8:15 AM 32.0 °F 26.4 °F 28.4 °F 87% 29.60 in 1.2 mi ENE 5.8 mph - N/A   Overcast
8:35 AM 32.0 °F 23.0 °F 28.4 °F 87% 29.55 in 1.8 mi ENE 11.5 mph 17.3 mph N/A   Overcast
8:55 AM 32.0 °F 23.6 °F 30.2 °F 93% 29.53 in 2.5 mi ENE 10.4 mph - N/A   Overcast
9:15 AM 32.0 °F 24.8 °F 28.4 °F 87% 29.54 in 3.0 mi ENE 8.1 mph - N/A   Overcast
9:35 AM 32.0 °F 25.6 °F 30.2 °F 93% 29.58 in 3.0 mi ENE 6.9 mph - N/A   Overcast
9:55 AM 32.0 °F 24.2 °F 30.2 °F 93% 29.56 in 1.0 mi NE 9.2 mph - N/A   Overcast
10:15 AM 32.0 °F 25.6 °F 30.2 °F 93% 29.54 in 1.0 mi NE 6.9 mph - N/A   Overcast
10:35 AM 32.0 °F 26.4 °F 28.4 °F 87% 29.58 in 0.5 mi ENE 5.8 mph - N/A   Overcast
10:55 AM 32.0 °F 23.0 °F 30.2 °F 93% 29.54 in 0.2 mi NE 11.5 mph 17.3 mph N/A   Overcast
11:15 AM 32.0 °F 23.0 °F 30.2 °F 93% 29.51 in 0.5 mi NNE 11.5 mph 17.3 mph N/A   Overcast
11:35 AM 32.0 °F 22.1 °F 30.2 °F 93% 29.47 in 1.0 mi NE 13.8 mph 23.0 mph N/A   Overcast
11:55 AM 32.0 °F 26.4 °F 28.4 °F 87% 29.52 in 1.2 mi ENE 5.8 mph - N/A   Overcast
12:15 PM 32.0 °F 21.2 °F 28.4 °F 87% 29.47 in 9.0 mi ENE 16.1 mph - N/A   Overcast
12:35 PM 32.0 °F 24.8 °F 28.4 °F 87% 29.46 in 10.0 mi NE 8.1 mph 16.1 mph N/A   Overcast
12:55 PM 33.8 °F 27.0 °F 28.4 °F 81% 29.45 in 3.0 mi NNE 8.1 mph 17.3 mph N/A   Overcast
1:15 PM 33.8 °F 27.7 °F 30.2 °F 87% 29.47 in 3.0 mi NNE 6.9 mph - 0.01 in   Overcast
1:35 PM 33.8 °F 28.6 °F 28.4 °F 81% 29.48 in 7.0 mi NE 5.8 mph - 0.01 in   Overcast
1:55 PM 33.8 °F 27.7 °F 28.4 °F 81% 29.47 in 2.0 mi NNE 6.9 mph - 0.02 in   Overcast
2:15 PM 32.0 °F 27.5 °F 30.2 °F 93% 29.46 in 1.0 mi North 4.6 mph - N/A   Overcast
2:55 PM 33.8 °F 27.7 °F 30.2 °F 87% 29.44 in 3.0 mi North 6.9 mph - N/A   Overcast
3:15 PM 33.8 °F 27.7 °F 30.2 °F 87% 29.45 in 9.0 mi North 6.9 mph - N/A   Overcast
3:35 PM 33.8 °F 25.8 °F 30.2 °F 87% 29.46 in 10.0 mi North 10.4 mph - 0.01 in   Overcast
3:55 PM 33.8 °F 27.0 °F 30.2 °F 87% 29.46 in 5.0 mi NNW 8.1 mph - 0.02 in   Overcast
4:15 PM 33.8 °F 25.8 °F 30.2 °F 87% 29.46 in 1.8 mi NNW 10.4 mph 17.3 mph N/A   Overcast
4:35 PM 32.0 °F 21.2 °F 28.4 °F 87% 29.47 in 1.2 mi NNW 16.1 mph 20.7 mph N/A   Overcast
4:55 PM 32.0 °F 24.2 °F 28.4 °F 87% 29.49 in 1.5 mi NNW 9.2 mph 19.6 mph N/A   Overcast
5:15 PM 32.0 °F 23.0 °F 28.4 °F 87% 29.50 in 2.0 mi NNW 11.5 mph 19.6 mph 0.01 in   Overcast
5:35 PM 32.0 °F 22.5 °F 26.6 °F 80% 29.51 in 1.2 mi NW 12.7 mph 19.6 mph 0.02 in   Overcast
5:55 PM 30.2 °F 18.1 °F 26.6 °F 86% 29.52 in 1.0 mi NW 18.4 mph 25.3 mph 0.02 in   Overcast
6:15 PM 30.2 °F 18.5 °F 26.6 °F 86% 29.54 in 0.8 mi NNW 17.3 mph 23.0 mph N/A   Overcast
6:35 PM 30.2 °F 18.1 °F 24.8 °F 80% 29.55 in 2.0 mi NW 18.4 mph 26.5 mph N/A   Overcast
6:55 PM 28.4 °F 16.2 °F 24.8 °F 86% 29.57 in 1.0 mi NW 17.3 mph 24.2 mph N/A   Overcast
7:15 PM 28.4 °F 16.6 °F 24.8 °F 86% 29.58 in 1.2 mi NNW 16.1 mph 24.2 mph N/A   Overcast
7:35 PM 28.4 °F 17.0 °F 23.0 °F 80% 29.59 in 4.0 mi NW 15.0 mph 26.5 mph N/A   Mostly Cloudy
7:55 PM 28.4 °F 17.5 °F 23.0 °F 80% 29.61 in 5.0 mi NW 13.8 mph 19.6 mph N/A   Overcast
8:15 PM 28.4 °F 17.5 °F 21.2 °F 74% 29.62 in 5.0 mi NNW 13.8 mph 24.2 mph N/A   Overcast
8:35 PM 26.6 °F 13.1 °F 21.2 °F 80% 29.64 in 4.0 mi NNW 19.6 mph 29.9 mph N/A   Overcast
8:55 PM 26.6 °F 14.7 °F 21.2 °F 80% 29.66 in 4.0 mi NNW 15.0 mph 27.6 mph N/A   Overcast
9:15 PM 26.6 °F 12.7 °F 19.4 °F 74% 29.68 in 3.0 mi NNW 20.7 mph 31.1 mph N/A   Overcast
9:35 PM 24.8 °F 12.9 °F 21.2 °F 86% 29.70 in 2.0 mi NNW 13.8 mph 26.5 mph N/A   Overcast
9:55 PM 24.8 °F 12.4 °F 21.2 °F 86% 29.71 in 4.0 mi NNW 15.0 mph 20.7 mph N/A   Overcast
10:15 PM 26.6 °F 14.7 °F 19.4 °F 74% 29.73 in 8.0 mi NNW 15.0 mph 26.5 mph N/A   Overcast
10:35 PM 26.6 °F 15.7 °F 21.2 °F 80% 29.74 in 5.0 mi NNW 12.7 mph 19.6 mph N/A   Overcast
10:55 PM 26.6 °F 15.2 °F 21.2 °F 80% 29.75 in 5.0 mi NNW 13.8 mph 23.0 mph N/A   Overcast
11:15 PM 26.6 °F 16.2 °F 21.2 °F 80% 29.76 in 7.0 mi NNW 11.5 mph 16.1 mph 0.01 in   Overcast
11:35 PM 26.6 °F 15.7 °F 21.2 °F 80% 29.77 in 7.0 mi NW 12.7 mph 21.9 mph 0.01 in   Overcast
11:55 PM 26.6 °F 13.8 °F 21.2 °F 80% 29.78 in 8.0 mi NNW 17.3 mph 28.8 mph 0.01 in   Overcast